Home > Weather > Jaisalmer > Past weeks

Flag for India Weather for the Past 2 Weeks in Jaisalmer, Rajasthan, India

Now
88 °F

Haze.


Feels Like: 89 °F
Forecast: 74 / 100 °F
Wind: 5 mph from Southeast

Location: Sukkur

Current Time: May 6, 2016 at 1:35:34 AM

Latest Report: May 6, 2016 at 12:30 AM


Visibility: 2 mi

Pressure: 29.71 "Hg

Humidity: 46%

Dew Point: 64 °F

Location of JaisalmerLocation

Historic Weather in Jaisalmer — Graph

°F

Jaisalmer Temperature Yesterday

Maximum temperature yesterday: 100 °F (at 3:30 PM)
Minimum temperature yesterday: 72 °F (at 6:30 AM)
Average temperature yesterday: 90 °F

High & Low Weather Summary for the Past Weeks

 TemperatureHumidityPressure
High115 °F (May 1, 3:30 PM)100% (May 3, 5:29 AM)29.77 "Hg (May 3, 5:29 AM)
Low66 °F (Apr 23, 7:30 AM)8% (Apr 23, 3:30 PM)29.47 "Hg (May 3, 6:00 PM)
Average93 °F34%29.64 "Hg
* Reported Apr 21 12:30 AM — May 6 12:30 AM, Jaisalmer, Weather by CustomWeather, © 2016

Note: Actual official high and low records may vary slightly from our data, if they occured in-between our weather recording intervals... More about our weather records

Advertising

Jaisalmer Weather History for the Previous 24 Hours

Scroll right to see more
 ConditionsComfort  
Time TempWeatherWind HumidityBarometerVisibility
12:30 AM
Fri, May 6
88 °FHaze.5 mph46%29.71 "Hg2 mi
11:30 PM
Thu, May 5
88 °FHaze.No wind52%29.71 "Hg2 mi
10:30 PM88 °FHaze.No wind49%29.71 "Hg2 mi
9:30 PM90 °FHaze.No wind43%29.71 "Hg2 mi
9:00 PM91 °FHaze.No wind41%29.68 "Hg2 mi
8:30 PM91 °FHaze.No wind41%29.68 "Hg2 mi
7:30 PM95 °FHaze.No wind36%29.68 "Hg3 mi
6:30 PM99 °FHaze.7 mph31%29.68 "Hg3 mi
5:30 PM100 °FHaze.9 mph24%29.68 "Hg3 mi
5:00 PM100 °FHaze.12 mph24%29.65 "Hg3 mi
4:30 PM100 °FHaze.12 mph24%29.65 "Hg3 mi
3:30 PM100 °FHaze.12 mph24%29.68 "Hg3 mi
2:30 PM99 °FHaze.7 mph27%29.71 "Hg3 mi
1:30 PM97 °FHaze.12 mph28%29.74 "Hg3 mi
12:30 PM95 °FHaze.5 mph28%29.74 "Hg3 mi
11:30 AM93 °FHaze.9 mph32%29.74 "Hg3 mi
10:30 AM90 °FHaze.5 mph38%29.74 "Hg3 mi
9:30 AM86 °FHaze.No wind46%29.74 "Hg3 mi
8:30 AM77 °FHaze.No wind61%29.71 "Hg3 mi
7:30 AM73 °FHaze.No wind74%29.68 "Hg2 mi
6:30 AM72 °FHaze.No wind73%29.68 "Hg2 mi
5:30 AM73 °FHaze.7 mph69%29.65 "Hg2 mi
4:30 AM75 °FHaze.7 mph65%29.65 "Hg2 mi
Weather by CustomWeather, © 2016

See weather overviewHow to use our weather pages